Weather in Kaesong

North Korea     37°58′13″N   126°33′26″E
temp.,
°C
wind,
m/s
gust,
m/s
humid.,
%
clouds,
%
prec.,
mm/h
press.,
hPa
HPBL,
m
7 march, sun
sun700:000ne366841 0.0 1031225
03:00−1ne356927 0.0 1030180
06:00−1ne346822 0.0 1031161
09:00+1ne235925 0.0 1031251
12:00+7se115446 0.0 1029663
15:00+8w234767 0.0 10271131
18:00+7sw235624 0.0 1027139
21:00+4w227512 0.0 102832
8 march, mon
mon800:00+3n22710 0.0 102823
03:00+2n22730 0.0 102829
06:000n22760 0.0 102827
09:00+3nne22580 0.0 1029232
12:00+8e01370 0.0 1028719
15:00+10w22290 0.0 10261127
18:00+8wsw23420 0.0 1026122
21:00+5w12531 0.0 102831
9 march, tue
tue900:00+4nnw115536 0.0 102822
03:00+3nne125748 0.0 102722
06:00+2n115974 0.0 102622
09:00+5w115086 0.0 1028123
12:00+9w333768 0.0 1027752
15:00+12wnw353662 0.0 10261147
18:00+10wsw34518 0.0 1026189
21:00+6w12664 0.0 102823
10 march, wed
wed1000:00+5nw11670 0.0 102822
03:00+4n22730 0.0 102823
06:00+3nne22790 0.0 102922
09:00+5ne23680 0.0 1031199
12:00+10ese33500 0.0 1029746
15:00+13ssw22390 0.0 1028872
18:00+11sw23530 0.0 1027142
21:00+8wsw116139 0.0 102822
11 march, thu
thu1100:00+7sse0060100 0.0 102822
03:00+6s1161100 0.0 102822
06:00+5sw1163100 0.0 102722
09:00+7w1158100 0.0 1028121
12:00+10sw2251100 0.0 1028516
15:00+11w2349100 0.0 1026656
18:00+10sw1259100 0.0 102565
21:00+8wsw2469100 0.0 1026143